| time (UTC) | temp F | wind direction | speed knots | gust knots | rain 1hr in | rain 24hr in | rain mn in | humidity % | barometer mb |
| 20260509102353 | 69 | 252 | 1.7 | 3.5 | 0.00 | 0.00 | 0.08 | 95 | 1009.0 |
| 20260509101853 | 70 | 220 | 3.5 | 4.3 | 0.00 | 0.00 | 0.08 | 94 | 1009.0 |
| 20260509101353 | 70 | 230 | 3.5 | 3.5 | 0.00 | 0.00 | 0.08 | 92 | 1009.0 |
| 20260509100853 | 70 | 243 | 3.5 | 4.3 | 0.00 | 0.00 | 0.08 | 92 | 1009.0 |
| 20260509100354 | 70 | 247 | 2.6 | 3.5 | 0.00 | 0.00 | 0.08 | 93 | 1009.0 |
| 20260509095853 | 69 | 214 | 3.5 | 4.3 | 0.00 | 0.00 | 0.08 | 93 | 1009.0 |
| 20260509095353 | 69 | 218 | 2.6 | 4.3 | 0.00 | 0.00 | 0.08 | 93 | 1009.0 |
| 20260509094853 | 70 | 240 | 2.6 | 3.5 | 0.00 | 0.00 | 0.08 | 94 | 1009.0 |
| 20260509094353 | 70 | 226 | 2.6 | 3.5 | 0.00 | 0.00 | 0.08 | 94 | 1009.0 |
| 20260509093854 | 70 | 228 | 2.6 | 5.2 | 0.00 | 0.00 | 0.08 | 93 | 1009.0 |
| 20260509093353 | 70 | 217 | 2.6 | 5.2 | 0.00 | 0.00 | 0.08 | 94 | 1009.0 |
| 20260509092853 | 70 | 233 | 3.5 | 4.3 | 0.00 | 0.00 | 0.08 | 92 | 1009.0 |
| 20260509092353 | 70 | 230 | 6.1 | 7.8 | 0.00 | 0.00 | 0.08 | 92 | 1009.0 |
| 20260509091853 | 70 | 243 | 2.6 | 7.8 | 0.00 | 0.00 | 0.08 | 92 | 1009.0 |
| 20260509091353 | 70 | 214 | 2.6 | 7.0 | 0.02 | 0.00 | 0.08 | 92 | 1009.0 |
| 20260509090853 | 70 | 223 | 6.1 | 7.8 | 0.09 | 0.00 | 0.08 | 92 | 1009.0 |
| 20260509090353 | 71 | 210 | 6.1 | 6.1 | 0.31 | 0.00 | 0.08 | 92 | 1009.0 |
| 20260509085853 | 71 | 232 | 3.5 | 5.2 | 0.33 | 0.00 | 0.07 | 90 | 1009.0 |
| 20260509085353 | 72 | 257 | 4.3 | 7.0 | 0.09 | 0.00 | 0.03 | 86 | 1009.0 |
| 20260509084853 | 73 | 218 | 7.0 | 7.8 | 0.00 | 0.00 | 0.01 | 85 | 1009.0 |
| 20260509084353 | 73 | 261 | 3.5 | 5.2 | 0.00 | 0.00 | 0.01 | 85 | 1009.0 |
| 20260509083854 | 73 | 253 | 4.3 | 5.2 | 0.00 | 0.00 | 0.01 | 84 | 1009.0 |
| 20260509083353 | 73 | 235 | 3.5 | 9.6 | 0.00 | 0.00 | 0.01 | 84 | 1009.0 |
| 20260509082853 | 73 | 230 | 5.2 | 7.0 | 0.00 | 0.00 | 0.01 | 84 | 1009.0 |
| 20260509082355 | 73 | 217 | 3.5 | 9.6 | 0.00 | 0.00 | 0.01 | 84 | 1008.0 |
| 20260509081853 | 72 | 206 | 3.5 | 7.8 | 0.00 | 0.00 | 0.01 | 85 | 1008.0 |
| 20260509081353 | 72 | 229 | 5.2 | 7.8 | 0.00 | 0.00 | 0.01 | 85 | 1009.0 |
| 20260509080853 | 72 | 250 | 6.1 | 7.0 | 0.00 | 0.00 | 0.01 | 86 | 1009.0 |
| 20260509080353 | 72 | 250 | 6.1 | 11.3 | 0.00 | 0.00 | 0.01 | 86 | 1008.0 |
| 20260509075853 | 72 | 252 | 4.3 | 7.0 | 0.00 | 0.00 | 0.01 | 86 | 1008.0 |
| 20260509075354 | 72 | 228 | 4.3 | 7.0 | 0.00 | 0.00 | 0.01 | 86 | 1008.0 |
| 20260509074853 | 72 | 299 | 2.6 | 7.8 | 0.00 | 0.00 | 0.01 | 86 | 1008.0 |
| 20260509074353 | 72 | 237 | 5.2 | 7.0 | 0.00 | 0.00 | 0.01 | 86 | 1009.0 |
| 20260509073854 | 72 | 252 | 4.3 | 9.6 | 0.00 | 0.00 | 0.01 | 86 | 1008.0 |
| 20260509073353 | 72 | 249 | 4.3 | 7.0 | 0.00 | 0.00 | 0.01 | 86 | 1008.0 |
| 20260509072853 | 72 | 248 | 7.0 | 13.9 | 0.00 | 0.00 | 0.01 | 86 | 1008.0 |
| 20260509072354 | 73 | 292 | 5.2 | 8.7 | 0.00 | 0.00 | 0.01 | 86 | 1008.0 |
| 20260509071854 | 73 | 222 | 4.3 | 8.7 | 0.00 | 0.00 | 0.01 | 85 | 1009.0 |
| 20260509071353 | 74 | 255 | 1.7 | 10.4 | 0.00 | 0.00 | 0.01 | 84 | 1008.0 |
| 20260509070853 | 74 | 246 | 7.0 | 7.0 | 0.00 | 0.00 | 0.01 | 82 | 1008.0 |
| 20260509070353 | 75 | 245 | 3.5 | 5.2 | 0.00 | 0.00 | 0.01 | 81 | 1009.0 |
| 20260509065853 | 75 | 221 | 3.5 | 6.1 | 0.00 | 0.00 | 0.01 | 81 | 1009.0 |
| 20260509065353 | 76 | 223 | 3.5 | 4.3 | 0.00 | 0.00 | 0.01 | 80 | 1009.0 |
| 20260509064853 | 77 | 221 | 3.5 | 7.8 | 0.00 | 0.00 | 0.01 | 78 | 1009.0 |
| 20260509064354 | 74 | 242 | 5.2 | 7.8 | 0.00 | 0.00 | 0.01 | 82 | 1008.0 |
| 20260509063853 | 73 | 5 | 1.7 | 7.8 | 0.00 | 0.00 | 0.01 | 83 | 1009.0 |
| 20260509063353 | 75 | 239 | 4.3 | 6.1 | 0.00 | 0.00 | 0.01 | 83 | 1009.0 |
| 20260509062854 | 74 | 277 | 4.3 | 7.0 | 0.00 | 0.00 | 0.01 | 84 | 1009.0 |
| 20260509062353 | 74 | 235 | 4.3 | 7.0 | 0.00 | 0.00 | 0.01 | 84 | 1009.0 |
| 20260509061853 | 75 | 279 | 4.3 | 9.6 | 0.00 | 0.00 | 0.01 | 81 | 1009.0 |
| 20260509061353 | 75 | 244 | 5.2 | 7.8 | 0.00 | 0.00 | 0.01 | 83 | 1009.0 |
| 20260509060853 | 74 | 243 | 1.7 | 4.3 | 0.00 | 0.00 | 0.01 | 83 | 1009.0 |
| 20260509060355 | 73 | 241 | 5.2 | 8.7 | 0.00 | 0.00 | 0.01 | 84 | 1009.0 |
| 20260509055853 | 73 | 236 | 2.6 | 4.3 | 0.00 | 0.00 | 0.01 | 87 | 1009.0 |
| 20260509055353 | 73 | 264 | 2.6 | 7.8 | 0.00 | 0.00 | 0.01 | 86 | 1009.0 |
| 20260509054853 | 73 | 228 | 4.3 | 10.4 | 0.00 | 0.00 | 0.01 | 85 | 1010.0 |
| 20260509054353 | 73 | 230 | 3.5 | 4.3 | 0.02 | 0.00 | 0.01 | 85 | 1010.0 |
| 20260509053853 | 73 | 242 | 3.5 | 4.3 | 0.07 | 0.00 | 0.01 | 85 | 1010.0 |
| 20260509053353 | 75 | 249 | 5.2 | 7.0 | 0.05 | 0.00 | 0.01 | 83 | 1010.0 |
| 20260509052853 | 75 | 297 | 4.3 | 7.0 | 0.00 | 0.00 | 0.00 | 80 | 1010.0 |
| 20260509052353 | 76 | 285 | 2.6 | 5.2 | 0.00 | 0.00 | 0.00 | 77 | 1010.0 |
| 20260509051853 | 77 | 263 | 1.7 | 7.8 | 0.00 | 0.00 | 0.00 | 74 | 1010.0 |
| 20260509051353 | 77 | 265 | 1.7 | 6.1 | 0.00 | 0.00 | 0.00 | 72 | 1010.0 |
| 20260509050901 | 77 | 268 | 2.6 | 7.0 | 0.00 | 0.00 | 0.00 | 72 | 1010.0 |
| 20260509050354 | 78 | 240 | 5.2 | 8.7 | 0.00 | 0.00 | 0.00 | 71 | 1010.0 |
| 20260509045853 | 79 | 284 | 4.3 | 9.6 | 0.00 | 0.00 | 0.00 | 69 | 1010.0 |
| 20260509045354 | 79 | 259 | 7.0 | 10.4 | 0.00 | 0.00 | 0.00 | 69 | 1010.0 |
| 20260509044853 | 80 | 247 | 7.0 | 7.8 | 0.00 | 0.00 | 0.00 | 68 | 1010.0 |
| 20260509044353 | 78 | 268 | 6.1 | 8.7 | 0.00 | 0.00 | 0.00 | 71 | 1011.0 |
| 20260509043853 | 80 | 285 | 4.3 | 7.8 | 0.00 | 0.00 | 0.00 | 69 | 1011.0 |
| 20260509043353 | 80 | 254 | 6.1 | 8.7 | 0.00 | 0.00 | 0.00 | 69 | 1011.0 |
| 20260509042853 | 79 | 231 | 7.0 | 9.6 | 0.00 | 0.00 | 0.00 | 69 | 1011.0 |
| 20260509042354 | 78 | 248 | 2.6 | 8.7 | 0.00 | 0.00 | 0.00 | 72 | 1011.0 |
| 20260509041853 | 79 | 242 | 3.5 | 7.8 | 0.00 | 0.00 | 0.00 | 70 | 1011.0 |
| 20260509041353 | 78 | 258 | 3.5 | 7.8 | 0.00 | 0.00 | 0.00 | 71 | 1011.0 |
| 20260509040853 | 78 | 354 | 2.6 | 7.8 | 0.00 | 0.00 | 0.00 | 72 | 1011.0 |
| 20260509040353 | 78 | 247 | 7.0 | 8.7 | 0.00 | 0.00 | 0.00 | 73 | 1012.0 |
| 20260509035853 | 75 | 244 | 2.6 | 7.0 | 0.00 | 0.00 | 0.00 | 77 | 1012.0 |
| 20260509035353 | 74 | 222 | 3.5 | 5.2 | 0.00 | 0.00 | 0.00 | 79 | 1012.0 |
| 20260509034854 | 76 | 241 | 3.5 | 11.3 | 0.00 | 0.00 | 0.00 | 78 | 1012.0 |
| 20260509034353 | 78 | 274 | 2.6 | 10.4 | 0.00 | 0.00 | 0.00 | 74 | 1012.0 |
| 20260509033853 | 79 | 275 | 3.5 | 9.6 | 0.00 | 0.00 | 0.00 | 72 | 1012.0 |
| 20260509033354 | 76 | 238 | 1.7 | 7.0 | 0.00 | 0.00 | 0.00 | 76 | 1012.0 |
| 20260509032853 | 76 | 274 | 3.5 | 7.8 | 0.00 | 0.00 | 0.00 | 77 | 1012.0 |
| 20260509032354 | 77 | 230 | 8.7 | 9.6 | 0.00 | 0.00 | 0.00 | 76 | 1012.0 |
| 20260509031853 | 77 | 342 | 1.7 | 5.2 | 0.00 | 0.00 | 0.00 | 75 | 1012.0 |
| 20260509031353 | 77 | 258 | 3.5 | 8.7 | 0.00 | 0.00 | 0.00 | 74 | 1012.0 |
| 20260509030853 | 77 | 275 | 3.5 | 6.1 | 0.00 | 0.00 | 0.00 | 74 | 1012.0 |
| 20260509030353 | 77 | 223 | 5.2 | 6.1 | 0.00 | 0.00 | 0.00 | 73 | 1012.0 |
| 20260509025855 | 78 | 221 | 3.5 | 5.2 | 0.00 | 0.00 | 0.00 | 70 | 1012.0 |
| 20260509025353 | 79 | 254 | 3.5 | 5.2 | 0.00 | 0.00 | 0.00 | 69 | 1012.0 |
| 20260509024853 | 78 | 260 | 3.5 | 7.8 | 0.00 | 0.00 | 0.00 | 70 | 1012.0 |
| 20260509024354 | 76 | 255 | 1.7 | 6.1 | 0.00 | 0.00 | 0.00 | 74 | 1012.0 |
| 20260509023855 | 77 | 288 | 3.5 | 5.2 | 0.00 | 0.00 | 0.00 | 73 | 1013.0 |
| 20260509023353 | 77 | 278 | 3.5 | 5.2 | 0.00 | 0.00 | 0.00 | 74 | 1012.0 |
| 20260509022853 | 77 | 252 | 5.2 | 7.0 | 0.00 | 0.00 | 0.00 | 73 | 1012.0 |
| 20260509022355 | 78 | 287 | 2.6 | 7.0 | 0.00 | 0.00 | 0.00 | 71 | 1012.0 |
| 20260509021853 | 78 | 230 | 3.5 | 7.8 | 0.00 | 0.00 | 0.00 | 69 | 1012.0 |
| 20260509021353 | 80 | 269 | 2.6 | 6.1 | 0.00 | 0.00 | 0.00 | 65 | 1012.0 |
| 20260509020853 | 82 | 210 | 6.1 | 7.0 | 0.00 | 0.00 | 0.00 | 62 | 1012.0 |
| 20260509020353 | 80 | 210 | 4.3 | 6.1 | 0.00 | 0.00 | 0.00 | 64 | 1013.0 |
| 20260509015854 | 80 | 247 | 4.3 | 5.2 | 0.00 | 0.00 | 0.00 | 62 | 1012.0 |
| 20260509015353 | 80 | 324 | 2.6 | 4.3 | 0.00 | 0.00 | 0.00 | 63 | 1012.0 |
| 20260509014853 | 78 | 228 | 1.7 | 4.3 | 0.00 | 0.00 | 0.00 | 66 | 1012.0 |
| 20260509014353 | 79 | 255 | 3.5 | 4.3 | 0.00 | 0.00 | 0.00 | 66 | 1013.0 |
| 20260509013853 | 77 | 137 | 0.9 | 3.5 | 0.00 | 0.00 | 0.00 | 69 | 1013.0 |
| 20260509013353 | 78 | 350 | 1.7 | 6.1 | 0.00 | 0.00 | 0.00 | 67 | 1013.0 |
| 20260509012854 | 78 | 203 | 3.5 | 5.2 | 0.00 | 0.00 | 0.00 | 67 | 1013.0 |
| 20260509012353 | 78 | 166 | 1.7 | 2.6 | 0.00 | 0.00 | 0.00 | 68 | 1013.0 |
| 20260509011855 | 77 | 151 | 4.3 | 7.0 | 0.00 | 0.00 | 0.00 | 68 | 1013.0 |
| 20260509011353 | 77 | 237 | 1.7 | 4.3 | 0.00 | 0.00 | 0.00 | 69 | 1013.0 |
| 20260509010853 | 75 | 355 | 0.0 | 3.5 | 0.00 | 0.00 | 0.00 | 71 | 1013.0 |
| 20260509010353 | 76 | 224 | 0.0 | 4.3 | 0.00 | 0.00 | 0.00 | 70 | 1013.0 |
| 20260509005853 | 76 | 200 | 2.6 | 3.5 | 0.00 | 0.00 | 0.00 | 71 | 1013.0 |
| 20260509005354 | 75 | 171 | 2.6 | 2.6 | 0.00 | 0.00 | 0.00 | 72 | 1013.0 |
| 20260509004853 | 75 | 233 | 5.2 | 5.2 | 0.00 | 0.00 | 0.00 | 72 | 1013.0 |
| 20260509004353 | 74 | 228 | 1.7 | 3.5 | 0.00 | 0.00 | 0.00 | 74 | 1013.0 |
| 20260509003853 | 74 | 181 | 2.6 | 3.5 | 0.00 | 0.00 | 0.00 | 75 | 1013.0 |
| 20260509003353 | 75 | 348 | 0.0 | 3.5 | 0.00 | 0.00 | 0.00 | 73 | 1013.0 |
| 20260509002853 | 74 | 213 | 2.6 | 3.5 | 0.00 | 0.00 | 0.00 | 75 | 1013.0 |
| 20260509002354 | 73 | 197 | 1.7 | 6.1 | 0.00 | 0.00 | 0.00 | 77 | 1013.0 |
| 20260509001853 | 73 | 146 | 2.6 | 5.2 | 0.00 | 0.00 | 0.00 | 76 | 1013.0 |
| 20260509001353 | 73 | 194 | 2.6 | 4.3 | 0.00 | 0.00 | 0.00 | 74 | 1013.0 |
| 20260509000853 | 74 | 198 | 3.5 | 4.3 | 0.00 | 0.00 | 0.00 | 74 | 1013.0 |
| 20260509000355 | 73 | 222 | 2.6 | 2.6 | 0.00 | 0.00 | 0.00 | 76 | 1012.0 |
| 20260508235853 | 74 | 327 | 2.6 | 4.3 | 0.00 | 0.00 | 0.00 | 76 | 1012.0 |
| 20260508235353 | 73 | 188 | 2.6 | 3.5 | 0.00 | 0.00 | 0.00 | 80 | 1012.0 |
| 20260508234855 | 72 | 250 | 2.6 | 2.6 | 0.00 | 0.00 | 0.00 | 82 | 1012.0 |
| 20260508234353 | 73 | 67 | 0.0 | 3.5 | 0.00 | 0.00 | 0.00 | 80 | 1012.0 |
| 20260508233853 | 72 | 97 | 0.9 | 2.6 | 0.00 | 0.00 | 0.00 | 82 | 1012.0 |
| 20260508233353 | 72 | 148 | 2.6 | 3.5 | 0.00 | 0.00 | 0.00 | 82 | 1012.0 |
| 20260508232853 | 71 | 231 | 0.9 | 3.5 | 0.00 | 0.00 | 0.00 | 84 | 1012.0 |
| 20260508232353 | 71 | 217 | 1.7 | 1.7 | 0.00 | 0.00 | 0.00 | 84 | 1012.0 |
| 20260508231853 | 71 | 345 | 0.0 | 2.6 | 0.00 | 0.00 | 0.00 | 85 | 1012.0 |
| 20260508231353 | 70 | 269 | 0.0 | 3.5 | 0.00 | 0.00 | 0.00 | 90 | 1012.0 |
| 20260508230853 | 70 | 267 | 1.7 | 2.6 | 0.00 | 0.00 | 0.00 | 90 | 1012.0 |
| 20260508230353 | 69 | 352 | 0.9 | 2.6 | 0.00 | 0.00 | 0.00 | 91 | 1012.0 |
| 20260508225853 | 68 | 341 | 1.7 | 2.6 | 0.00 | 0.00 | 0.00 | 94 | 1011.0 |
| 20260508225353 | 68 | 222 | 1.7 | 2.6 | 0.00 | 0.00 | 0.00 | 94 | 1012.0 |
| 20260508224854 | 68 | 157 | 1.7 | 2.6 | 0.00 | 0.00 | 0.00 | 95 | 1011.0 |
| 20260508224355 | 68 | 249 | 0.9 | 1.7 | 0.00 | 0.00 | 0.00 | 96 | 1011.0 |
| 20260508223854 | 68 | 153 | 1.7 | 2.6 | 0.00 | 0.00 | 0.00 | 96 | 1011.0 |
| 20260508223353 | 68 | 184 | 0.9 | 2.6 | 0.00 | 0.00 | 0.00 | 96 | 1011.0 |
| 20260508222853 | 68 | 179 | 0.0 | 2.6 | 0.00 | 0.00 | 0.00 | 97 | 1011.0 |
| 20260508222353 | 68 | 56 | 0.0 | 1.7 | 0.00 | 0.00 | 0.00 | 97 | 1011.0 |
| 20260508221853 | 68 | 57 | 0.9 | 2.6 | 0.00 | 0.00 | 0.00 | 97 | 1011.0 |
| 20260508221353 | 68 | 81 | 0.9 | 1.7 | 0.00 | 0.00 | 0.00 | 98 | 1011.0 |
| 20260508220853 | 68 | 157 | 1.7 | 2.6 | 0.00 | 0.00 | 0.00 | 98 | 1010.0 |
| 20260508220353 | 67 | 307 | 0.0 | 2.6 | 0.00 | 0.00 | 0.00 | 98 | 1010.0 |
| 20260508215853 | 68 | 116 | 0.9 | 1.7 | 0.00 | 0.00 | 0.00 | 98 | 1010.0 |
| 20260508215353 | 68 | 334 | 0.9 | 1.7 | 0.00 | 0.00 | 0.00 | 98 | 1010.0 |
| 20260508214854 | 68 | 233 | 0.0 | 2.6 | 0.00 | 0.00 | 0.00 | 98 | 1010.0 |
| 20260508214353 | 68 | 59 | 0.9 | 2.6 | 0.00 | 0.00 | 0.00 | 98 | 1011.0 |
| 20260508213853 | 68 | 7 | 2.6 | 2.6 | 0.00 | 0.00 | 0.00 | 99 | 1010.0 |
| 20260508213353 | 68 | 314 | 0.0 | 2.6 | 0.00 | 0.00 | 0.00 | 99 | 1010.0 |
| 20260508212853 | 68 | 49 | 0.0 | 1.7 | 0.00 | 0.00 | 0.00 | 99 | 1010.0 |
| 20260508212353 | 68 | 29 | 2.6 | 2.6 | 0.00 | 0.00 | 0.00 | 99 | 1010.0 |
| 20260508211853 | 68 | 50 | 0.9 | 2.6 | 0.00 | 0.00 | 0.00 | 99 | 1010.0 |
| 20260508211353 | 67 | 16 | 0.9 | 1.7 | 0.00 | 0.00 | 0.00 | 99 | 1010.0 |
| 20260508210853 | 67 | 285 | 0.9 | 3.5 | 0.00 | 0.00 | 0.00 | 99 | 1010.0 |
| 20260508210353 | 68 | 5 | 1.7 | 3.5 | 0.00 | 0.00 | 0.00 | 99 | 1010.0 |
| 20260508205854 | 68 | 15 | 1.7 | 2.6 | 0.00 | 0.00 | 0.00 | 99 | 1010.0 |
| 20260508205354 | 68 | 256 | 0.0 | 2.6 | 0.00 | 0.00 | 0.00 | 99 | 1010.0 |
| 20260508204854 | 68 | 128 | 0.0 | 2.6 | 0.00 | 0.00 | 0.00 | 99 | 1010.0 |
| 20260508204354 | 68 | 41 | 0.0 | 2.6 | 0.00 | 0.00 | 0.00 | 99 | 1009.0 |
| 20260508203853 | 68 | 296 | 0.9 | 1.7 | 0.00 | 0.00 | 0.00 | 99 | 1009.0 |
| 20260508203353 | 68 | 271 | 0.9 | 3.5 | 0.00 | 0.00 | 0.00 | 99 | 1009.0 |
| 20260508202853 | 68 | 156 | 1.7 | 2.6 | 0.00 | 0.00 | 0.00 | 99 | 1010.0 |
| 20260508202354 | 68 | 179 | 1.7 | 1.7 | 0.00 | 0.00 | 0.00 | 99 | 1010.0 |
| 20260508201853 | 68 | 199 | 1.7 | 1.7 | 0.00 | 0.00 | 0.00 | 98 | 1009.0 |
| 20260508201353 | 68 | 311 | 0.9 | 1.7 | 0.00 | 0.00 | 0.00 | 99 | 1009.0 |
| 20260508200854 | 68 | 154 | 1.7 | 1.7 | 0.00 | 0.00 | 0.00 | 98 | 1009.0 |
| 20260508200353 | 68 | 130 | 0.9 | 1.7 | 0.00 | 0.00 | 0.00 | 98 | 1009.0 |
| 20260508195854 | 68 | 191 | 0.9 | 1.7 | 0.00 | 0.00 | 0.00 | 98 | 1009.0 |
| 20260508195353 | 68 | 36 | 0.9 | 2.6 | 0.00 | 0.00 | 0.00 | 98 | 1009.0 |
| 20260508194853 | 68 | 255 | 1.7 | 1.7 | 0.00 | 0.00 | 0.00 | 98 | 1009.0 |
| 20260508194353 | 68 | 185 | 1.7 | 2.6 | 0.00 | 0.00 | 0.00 | 98 | 1009.0 |
| 20260508193853 | 68 | 233 | 1.7 | 1.7 | 0.00 | 0.00 | 0.00 | 98 | 1009.0 |
| 20260508193353 | 68 | 234 | 2.6 | 2.6 | 0.00 | 0.00 | 0.00 | 98 | 1009.0 |
| 20260508192854 | 68 | 199 | 1.7 | 2.6 | 0.00 | 0.00 | 0.00 | 98 | 1009.0 |
| 20260508192356 | 68 | 55 | 0.0 | 1.7 | 0.00 | 0.00 | 0.00 | 98 | 1009.0 |
| 20260508191855 | 68 | 246 | 0.9 | 1.7 | 0.00 | 0.00 | 0.00 | 98 | 1009.0 |
| 20260508191355 | 68 | 162 | 0.9 | 1.7 | 0.00 | 0.00 | 0.00 | 98 | 1009.0 |
| 20260508190854 | 67 | 170 | 0.9 | 3.5 | 0.00 | 0.00 | 0.00 | 98 | 1009.0 |
| 20260508190354 | 67 | 234 | 1.7 | 2.6 | 0.00 | 0.00 | 0.00 | 98 | 1009.0 |
| 20260508185853 | 67 | 265 | 1.7 | 2.6 | 0.00 | 0.00 | 0.00 | 98 | 1009.0 |
| 20260508185356 | 67 | 215 | 2.6 | 3.5 | 0.00 | 0.00 | 0.00 | 98 | 1009.0 |
| 20260508184855 | 67 | 197 | 0.0 | 2.6 | 0.00 | 0.00 | 0.00 | 98 | 1009.0 |
| 20260508184353 | 67 | 210 | 0.9 | 2.6 | 0.00 | 0.00 | 0.00 | 98 | 1009.0 |
| 20260508183854 | 67 | 251 | 2.6 | 4.3 | 0.00 | 0.00 | 0.00 | 98 | 1009.0 |
| 20260508183353 | 67 | 228 | 2.6 | 2.6 | 0.00 | 0.00 | 0.00 | 98 | 1009.0 |
| 20260508182854 | 67 | 234 | 0.9 | 3.5 | 0.00 | 0.00 | 0.00 | 97 | 1009.0 |
| 20260508182353 | 67 | 236 | 1.7 | 2.6 | 0.00 | 0.00 | 0.00 | 98 | 1009.0 |
| 20260508181854 | 68 | 202 | 1.7 | 2.6 | 0.00 | 0.00 | 0.00 | 98 | 1009.0 |
| 20260508181353 | 68 | 277 | 0.9 | 2.6 | 0.00 | 0.00 | 0.00 | 98 | 1009.0 |
| 20260508180853 | 68 | 212 | 2.6 | 2.6 | 0.00 | 0.00 | 0.00 | 98 | 1009.0 |
| 20260508180354 | 68 | 162 | 1.7 | 2.6 | 0.00 | 0.00 | 0.00 | 97 | 1009.0 |
| 20260508175854 | 68 | 247 | 0.0 | 3.5 | 0.00 | 0.00 | 0.00 | 97 | 1009.0 |
| 20260508175355 | 67 | 36 | 0.9 | 2.6 | 0.00 | 0.00 | 0.00 | 97 | 1009.0 |
| 20260508174855 | 67 | 165 | 1.7 | 3.5 | 0.00 | 0.00 | 0.00 | 97 | 1009.0 |
| 20260508174356 | 67 | 196 | 1.7 | 3.5 | 0.00 | 0.00 | 0.00 | 97 | 1009.0 |
| 20260508173855 | 67 | 243 | 2.6 | 4.3 | 0.00 | 0.00 | 0.00 | 97 | 1009.0 |
| 20260508173356 | 67 | 212 | 1.7 | 2.6 | 0.00 | 0.00 | 0.00 | 96 | 1009.0 |
| 20260508172853 | 67 | 206 | 0.9 | 3.5 | 0.00 | 0.00 | 0.00 | 96 | 1009.0 |
| 20260508172353 | 67 | 267 | 3.5 | 3.5 | 0.00 | 0.00 | 0.00 | 96 | 1009.0 |
| 20260508171855 | 67 | 266 | 0.9 | 2.6 | 0.00 | 0.00 | 0.00 | 96 | 1009.0 |
| 20260508171355 | 67 | 277 | 1.7 | 4.3 | 0.00 | 0.00 | 0.00 | 96 | 1009.0 |
| 20260508170856 | 67 | 284 | 0.0 | 6.1 | 0.00 | 0.00 | 0.00 | 96 | 1009.0 |
| 20260508170354 | 68 | 162 | 2.6 | 3.5 | 0.00 | 0.00 | 0.00 | 96 | 1009.0 |
| 20260508165854 | 68 | 249 | 3.5 | 4.3 | 0.00 | 0.00 | 0.00 | 96 | 1009.0 |
| 20260508165353 | 68 | 229 | 3.5 | 4.3 | 0.00 | 0.00 | 0.00 | 96 | 1009.0 |
| 20260508164854 | 68 | 264 | 3.5 | 4.3 | 0.00 | 0.00 | 0.00 | 96 | 1009.0 |
| 20260508164353 | 68 | 220 | 1.7 | 4.3 | 0.00 | 0.00 | 0.00 | 96 | 1009.0 |
| 20260508163855 | 68 | 290 | 1.7 | 4.3 | 0.00 | 0.00 | 0.00 | 96 | 1009.0 |
| 20260508163354 | 68 | 335 | 0.0 | 3.5 | 0.00 | 0.00 | 0.00 | 96 | 1009.0 |
| 20260508162855 | 68 | 196 | 3.5 | 3.5 | 0.00 | 0.00 | 0.00 | 96 | 1009.0 |
| 20260508162355 | 68 | 235 | 1.7 | 1.7 | 0.00 | 0.00 | 0.00 | 96 | 1009.0 |
| 20260508161855 | 68 | 98 | 1.7 | 2.6 | 0.00 | 0.00 | 0.00 | 96 | 1009.0 |
| 20260508161354 | 68 | 243 | 1.7 | 5.2 | 0.00 | 0.00 | 0.00 | 95 | 1010.0 |
| 20260508160853 | 68 | 248 | 2.6 | 2.6 | 0.00 | 0.00 | 0.00 | 95 | 1010.0 |
| 20260508160357 | 68 | 237 | 2.6 | 3.5 | 0.00 | 0.00 | 0.00 | 95 | 1009.0 |
| 20260508155854 | 68 | 241 | 3.5 | 3.5 | 0.00 | 0.00 | 0.00 | 95 | 1010.0 |
| 20260508155354 | 68 | 209 | 2.6 | 2.6 | 0.00 | 0.00 | 0.00 | 94 | 1010.0 |
| 20260508154855 | 68 | 213 | 2.6 | 2.6 | 0.00 | 0.00 | 0.00 | 94 | 1010.0 |
| 20260508154354 | 69 | 228 | 1.7 | 2.6 | 0.00 | 0.00 | 0.00 | 94 | 1010.0 |
| 20260508153855 | 69 | 253 | 2.6 | 2.6 | 0.00 | 0.00 | 0.00 | 94 | 1010.0 |
| 20260508153355 | 69 | 213 | 2.6 | 2.6 | 0.00 | 0.00 | 0.00 | 94 | 1010.0 |
| 20260508152853 | 69 | 308 | 0.0 | 1.7 | 0.00 | 0.00 | 0.00 | 94 | 1010.0 |
| 20260508152353 | 69 | 229 | 0.0 | 2.6 | 0.00 | 0.00 | 0.00 | 93 | 1010.0 |
| 20260508151854 | 69 | 245 | 2.6 | 3.5 | 0.00 | 0.00 | 0.00 | 93 | 1010.0 |
| 20260508151353 | 69 | 272 | 2.6 | 4.3 | 0.00 | 0.00 | 0.00 | 92 | 1010.0 |
| 20260508150853 | 70 | 237 | 3.5 | 4.3 | 0.00 | 0.00 | 0.00 | 91 | 1010.0 |
| 20260508150353 | 70 | 221 | 0.0 | 2.6 | 0.00 | 0.00 | 0.00 | 91 | 1010.0 |
| 20260508145853 | 70 | 217 | 1.7 | 2.6 | 0.00 | 0.00 | 0.00 | 90 | 1010.0 |
| 20260508145353 | 70 | 93 | 0.0 | 1.7 | 0.00 | 0.00 | 0.00 | 90 | 1010.0 |
| 20260508144854 | 70 | 219 | 1.7 | 2.6 | 0.00 | 0.00 | 0.00 | 89 | 1010.0 |
| 20260508144354 | 70 | 219 | 1.7 | 2.6 | 0.00 | 0.00 | 0.00 | 89 | 1010.0 |
| 20260508143854 | 70 | 297 | 0.0 | 1.7 | 0.00 | 0.00 | 0.00 | 90 | 1010.0 |
| 20260508143354 | 70 | 280 | 0.9 | 2.6 | 0.00 | 0.00 | 0.00 | 90 | 1010.0 |
| 20260508142853 | 70 | 220 | 2.6 | 2.6 | 0.00 | 0.00 | 0.00 | 90 | 1010.0 |
| 20260508142353 | 71 | 257 | 1.7 | 2.6 | 0.00 | 0.00 | 0.00 | 89 | 1010.0 |
| 20260508141853 | 71 | 217 | 0.0 | 1.7 | 0.00 | 0.00 | 0.00 | 88 | 1010.0 |
| 20260508141353 | 71 | 242 | 0.9 | 2.6 | 0.00 | 0.00 | 0.00 | 88 | 1010.0 |
| 20260508140853 | 71 | 335 | 0.0 | 1.7 | 0.00 | 0.00 | 0.00 | 89 | 1010.0 |
| 20260508140356 | 71 | 241 | 0.0 | 1.7 | 0.00 | 0.00 | 0.00 | 90 | 1010.0 |
| 20260508135854 | 71 | 269 | 0.0 | 1.7 | 0.00 | 0.00 | 0.00 | 89 | 1010.0 |
| 20260508135353 | 71 | 237 | 0.9 | 2.6 | 0.00 | 0.00 | 0.00 | 89 | 1010.0 |
| 20260508134853 | 71 | 254 | 2.6 | 3.5 | 0.00 | 0.00 | 0.00 | 88 | 1010.0 |
| 20260508134353 | 71 | 282 | 0.9 | 1.7 | 0.00 | 0.00 | 0.00 | 87 | 1010.0 |
| 20260508133853 | 71 | 278 | 1.7 | 2.6 | 0.00 | 0.00 | 0.00 | 88 | 1010.0 |
| 20260508133354 | 71 | 255 | 2.6 | 2.6 | 0.00 | 0.00 | 0.00 | 88 | 1010.0 |
| 20260508132854 | 71 | 277 | 1.7 | 3.5 | 0.00 | 0.00 | 0.00 | 88 | 1010.0 |
| 20260508132355 | 71 | 260 | 1.7 | 3.5 | 0.00 | 0.00 | 0.00 | 88 | 1010.0 |
| 20260508131854 | 71 | 252 | 2.6 | 2.6 | 0.00 | 0.00 | 0.00 | 88 | 1010.0 |
| 20260508131353 | 72 | 240 | 2.6 | 3.5 | 0.00 | 0.00 | 0.00 | 87 | 1010.0 |
| 20260508130853 | 72 | 248 | 2.6 | 3.5 | 0.00 | 0.00 | 0.00 | 85 | 1010.0 |
| 20260508130353 | 72 | 225 | 1.7 | 2.6 | 0.00 | 0.00 | 0.00 | 86 | 1010.0 |
| 20260508125853 | 72 | 257 | 1.7 | 4.3 | 0.00 | 0.00 | 0.00 | 86 | 1009.0 |
| 20260508125353 | 73 | 238 | 0.9 | 2.6 | 0.00 | 0.00 | 0.00 | 86 | 1009.0 |
| 20260508124854 | 73 | 238 | 0.9 | 2.6 | 0.00 | 0.00 | 0.00 | 86 | 1009.0 |
| 20260508124353 | 73 | 257 | 0.9 | 2.6 | 0.00 | 0.00 | 0.00 | 85 | 1009.0 |
| 20260508123856 | 73 | 223 | 0.9 | 2.6 | 0.00 | 0.00 | 0.00 | 84 | 1009.0 |
| 20260508123354 | 73 | 203 | 1.7 | 3.5 | 0.00 | 0.00 | 0.00 | 83 | 1009.0 |
| 20260508122854 | 73 | 224 | 2.6 | 2.6 | 0.00 | 0.00 | 0.00 | 82 | 1009.0 |
| 20260508122353 | 73 | 197 | 2.6 | 4.3 | 0.00 | 0.00 | 0.00 | 83 | 1009.0 |
| 20260508121853 | 73 | 304 | 1.7 | 2.6 | 0.00 | 0.00 | 0.00 | 84 | 1009.0 |
| 20260508121353 | 73 | 258 | 0.0 | 3.5 | 0.00 | 0.00 | 0.00 | 84 | 1009.0 |
| 20260508120854 | 73 | 258 | 3.5 | 4.3 | 0.00 | 0.00 | 0.00 | 85 | 1009.0 |
| 20260508120354 | 73 | 268 | 0.9 | 1.7 | 0.00 | 0.00 | 0.00 | 85 | 1009.0 |
| 20260508115853 | 73 | 236 | 2.6 | 2.6 | 0.00 | 0.00 | 0.00 | 84 | 1009.0 |
| 20260508115354 | 73 | 247 | 1.7 | 2.6 | 0.00 | 0.00 | 0.00 | 83 | 1008.0 |
| 20260508114854 | 73 | 237 | 2.6 | 4.3 | 0.00 | 0.00 | 0.00 | 83 | 1008.0 |
| 20260508114353 | 73 | 250 | 1.7 | 3.5 | 0.00 | 0.00 | 0.00 | 84 | 1008.0 |
| 20260508113856 | 73 | 231 | 2.6 | 2.6 | 0.00 | 0.00 | 0.00 | 83 | 1008.0 |
| 20260508113353 | 74 | 247 | 2.6 | 3.5 | 0.00 | 0.00 | 0.00 | 81 | 1008.0 |
| 20260508112854 | 74 | 241 | 2.6 | 2.6 | 0.00 | 0.00 | 0.00 | 81 | 1008.0 |
| 20260508112353 | 74 | 237 | 1.7 | 1.7 | 0.00 | 0.00 | 0.00 | 81 | 1008.0 |
| 20260508111853 | 74 | 224 | 1.7 | 2.6 | 0.00 | 0.00 | 0.00 | 81 | 1008.0 |
| 20260508111353 | 74 | 291 | 1.7 | 3.5 | 0.00 | 0.00 | 0.00 | 80 | 1008.0 |
| 20260508110853 | 75 | 203 | 2.6 | 3.5 | 0.00 | 0.00 | 0.00 | 80 | 1008.0 |
| 20260508110354 | 75 | 294 | 1.7 | 2.6 | 0.00 | 0.00 | 0.00 | 78 | 1008.0 |
| 20260508105853 | 74 | 225 | 0.9 | 1.7 | 0.00 | 0.00 | 0.00 | 78 | 1008.0 |
| 20260508105353 | 74 | 229 | 0.0 | 2.6 | 0.00 | 0.00 | 0.00 | 79 | 1008.0 |
| 20260508104855 | 74 | 220 | 2.6 | 3.5 | 0.00 | 0.00 | 0.00 | 79 | 1008.0 |
| 20260508104354 | 74 | 245 | 3.5 | 4.3 | 0.00 | 0.00 | 0.00 | 79 | 1008.0 |
| 20260508103853 | 75 | 237 | 2.6 | 4.3 | 0.00 | 0.00 | 0.00 | 78 | 1008.0 |
| 20260508103356 | 75 | 227 | 4.3 | 4.3 | 0.00 | 0.00 | 0.00 | 77 | 1008.0 |
| 20260508102853 | 75 | 227 | 2.6 | 4.3 | 0.00 | 0.00 | 0.00 | 76 | 1008.0 |